Home > Weather > Aurich > Past weeks

Flag for Germany Past Weather in Aurich, Lower Saxony, Germany — Yesterday and Last 2 Weeks

Now
64 °F

Scattered clouds.


Feels Like: 64 °F
Forecast: 57 / 71 °F
Wind: 5 mph from Southwest

Location: Wittmundhaven

Current Time: Jul 26, 2016 at 10:28:29 AM

Latest Report: Jul 26, 2016 at 9:20 AM


Visibility: N/A

Pressure: 30.12 "Hg

Humidity: 78%

Dew Point: 57 °F

Location of AurichLocation

Past Weather in Aurich — Graph

°F

Aurich Temperature Yesterday

Maximum temperature yesterday: 75 °F (at 4:20 PM)
Minimum temperature yesterday: 61 °F (at 10:20 PM)
Average temperature yesterday: 67 °F

High & Low Weather Summary for the Past Weeks

 TemperatureHumidityPressure
High88 °F (Jul 20, 4:20 PM)100% (Jul 13, 12:20 AM)30.24 "Hg (Jul 13, 12:20 AM)
Low50 °F (Jul 14, 3:20 AM)40% (Jul 20, 6:20 PM)29.68 "Hg (Jul 11, 8:20 AM)
Average65 °F82%30.03 "Hg
* Reported Jul 11 8:20 AM — Jul 26 8:20 AM, Aurich, Weather by CustomWeather, © 2016

Note: Actual official high and low records may vary slightly from our data, if they occured in-between our weather recording intervals... More about our weather records

Advertising

Aurich Weather History for the Previous 24 Hours

Scroll right to see more
 ConditionsComfort  
Time TempWeatherWind HumidityBarometerVisibility
8:20 AM
Tue, Jul 26
63 °FScattered clouds.6 mph88%30.12 "HgN/A
7:20 AM57 °FScattered clouds.3 mph100%30.12 "HgN/A
6:20 AM54 °FCool.1 mph100%30.09 "Hg0 mi
5:20 AM54 °FCool.2 mph100%30.09 "Hg0 mi
4:20 AM55 °FCool.2 mph100%30.09 "Hg0 mi
3:20 AM55 °FCool.3 mph100%30.09 "Hg0 mi
2:20 AM55 °FCool.2 mph100%30.09 "Hg1 mi
1:20 AM57 °FCool.2 mph100%30.09 "Hg1 mi
12:20 AM59 °FCool.3 mph94%30.09 "Hg2 mi
11:20 PM
Mon, Jul 25
61 °FCool.3 mph94%30.09 "Hg3 mi
10:20 PM61 °FCool.5 mph94%30.09 "Hg3 mi
9:20 PM64 °FMild.6 mph88%30.09 "Hg5 mi
8:20 PM66 °FMild.9 mph88%30.07 "Hg5 mi
7:20 PM64 °FMild.10 mph100%30.07 "Hg4 mi
6:20 PM70 °FMild.3 mph88%30.04 "Hg3 mi
5:20 PM72 °FMild.8 mph78%30.04 "Hg4 mi
4:20 PM75 °FMild.10 mph65%30.04 "Hg6 mi
3:20 PM73 °FPartly sunny.8 mph69%30.04 "HgN/A
2:20 PM73 °FPartly sunny.9 mph69%30.04 "HgN/A
1:20 PM73 °FBroken clouds.12 mph65%30.04 "HgN/A
12:20 PM73 °FPartly sunny.10 mph65%30.04 "HgN/A
11:20 AM73 °FPartly sunny.9 mph65%30.04 "HgN/A
10:20 AM72 °FBroken clouds.8 mph73%30.04 "Hg6 mi
Weather by CustomWeather, © 2016

See weather overviewHow to use our weather pages